This demonstration page uses our WeatherBlox Daily Observations layout. Learn more.

Left ArrowRight Arrow

Hourly Observations for December 5, 2022

Temp ( °F °C ) Dew Point ( °F °C ) Humidity (%) Winds ( mph kmh ) Pressure ( in mb ) Visibility ( mi km ) Precip ( " mm )
12:55 am 00:55 Clear 29 -1.7 20 -6.7 69 69 S 3 6 29.97 1015 10 16 0.00 0.00
1:55 am 01:55 Clear 27 -2.8 19 -7.2 72 72 S 5 7 29.95 1014 10 16 0.00 0.00
2:55 am 02:55 Clear 27 -2.8 19 -7.2 72 72 Calm 29.94 1014 10 16 0.00 0.00
3:55 am 03:55 Clear 26 -3.3 20 -6.7 77 77 SSW 5 7 29.91 1013 10 16 0.00 0.00
4:55 am 04:55 Clear 29 -1.7 24 -4.4 82 82 S 5 7 29.89 1012 10 16 0.00 0.00
5:55 am 05:55 Partly Cloudy 28 -2.2 23 -5 81 81 Calm 29.88 1012 10 16 0.00 0.00
6:05 am 06:05 Mostly Cloudy 30 -1.1 24 -4.4 78 78 S 3 6 29.89 1012 10 16 0.00 0.00
6:55 am 06:55 Partly Cloudy 28 -2.2 24 -4.4 85 85 SSE 5 7 29.89 1012 9 14 0.00 0.00
7:55 am 07:55 Cloudy 33 0.6 29 -1.7 85 85 SSW 6 9 29.88 1012 10 16 0.00 0.00
8:55 am 08:55 Cloudy 38 3.3 32 0 79 79 SSW 5 7 29.90 1012 10 16 0.00 0.00
9:55 am 09:55 Mostly Cloudy 42 5.6 33 0.6 70 70 SSW 8 13 29.89 1012 10 16 0.00 0.00
10:55 am 10:55 Sunny 44 6.7 34 1.1 67 67 SSW 8 13 29.86 1011 10 16 0.00 0.00
11:55 am 11:55 Sunny 46 7.8 34 1.1 63 63 SW 6 9 29.84 1011 10 16 0.00 0.00
12:55 pm 12:55 Cloudy 48 8.9 35 1.7 61 61 S 7 11 29.81 1010 10 16 0.00 0.00
1:55 pm 13:55 Cloudy 50 10 35 1.7 56 56 SSW 6 9 29.80 1009 10 16 0.00 0.00
2:55 pm 14:55 Cloudy 50 10 36 2.2 58 58 SSW 7 11 29.80 1009 10 16 0.00 0.00
3:55 pm 15:55 Cloudy 50 10 36 2.2 58 58 W 6 9 29.82 1010 10 16 0.00 0.00
4:55 pm 16:55 Cloudy 49 9.4 36 2.2 61 61 Calm 29.83 1010 10 16 0.00 0.00
5:55 pm 17:55 Cloudy 47 8.3 36 2.2 65 65 WNW 5 7 29.86 1011 10 16 0.00 0.00
6:55 pm 18:55 Clear 42 5.6 34 1.1 73 73 N 7 11 29.88 1012 10 16 0.00 0.00
7:55 pm 19:55 Clear 39 3.9 33 0.6 79 79 N 7 11 29.90 1013 10 16 0.00 0.00
8:55 pm 20:55 Clear 38 3.3 30 -1.1 73 73 NNE 8 13 29.91 1013 10 16 0.00 0.00
9:55 pm 21:55 Clear 36 2.2 27 -2.8 69 69 N 7 11 29.93 1014 10 16 0.00 0.00
10:55 pm 22:55 Clear 34 1.1 25 -3.9 69 69 N 8 13 29.94 1014 10 16 0.00 0.00
11:55 pm 23:55 Clear 33 0.6 25 -3.9 72 72 N 7 11 29.94 1014 10 16 0.00 0.00

Powered by AerisWeather